Regional Weather Roundup
Issued by NWS Charleston, SC

Current Version | Previous Version | Graphics & Text | Print | Product List | Glossary On
Versions: 1 2 3 4 5 6 7 8 9 10 11 12 13 14 15 16 17 18 19 20 21 22 23 24 25 26 27 28 29 30 31 32 33 34 35 36 37 38 39 40 41 42 43 44 45 46 47 48 49 50
000
ASUS42 KCHS 041027
RWRCHS

REGIONAL WEATHER ROUNDUP
NATIONAL WEATHER SERVICE CHARLESTON SC
600 AM EDT FRI SEP 04 2015

NOTE: "FAIR" INDICATES FEW OR NO CLOUDS BELOW 12,000 FEET WITH NO
SIGNIFICANT WEATHER AND/OR OBSTRUCTIONS TO VISIBILITY.

NOT ALL STATIONS ARE QUALITY CONTROLLED BY THE NATIONAL
WEATHER SERVICE. USE DATA WITH CAUTION...ESPECIALLY
DEWPOINT OBSERVATIONS.

SCZ027-030-031-034>040-042>050-041100-
...SOUTHEAST SOUTH CAROLINA...

CITY           SKY/WX    TMP DP  RH WIND       PRES   REMARKS
N CHARLESTON   PTCLDY    76  74  93 CALM      29.92S
WATERFRONT PRK   N/A     79  77  94 VRB2      29.89S
MOUNT PLEASANT LGT RAIN  75  75 100 CALM      29.92R
JOHNS ISLAND   FAIR      77  75  94 CALM      29.92R
PINOPOLIS        N/A     81  75  83 CALM      29.85R
MONCKS CORNER  FAIR      73  72  94 CALM      29.93R
SUMMERVILLE    FAIR      72  72 100 CALM      29.94R
BEAUFORT MCAS  CLEAR     76  74  93 CALM      29.93R
BEAUFORT ARPT  FAIR      77  77 100 CALM      29.92R
HILTON HEAD IS NOT AVBL
WALTERBORO     SUNNY     73  72  94 CALM      29.94R
ALLENDALE      FAIR      73  72  94 CALM      29.93S

...SOUTHERN MIDLANDS AND PEE DEE...

CITY           SKY/WX    TMP DP  RH WIND       PRES   REMARKS
GEORGETOWN     NOT AVBL
KINGSTREE      NOT AVBL
ORANGEBURG     PTCLDY    72  70  93 CALM      29.94S
BARNWELL       FAIR      72  72 100 CALM      29.95R
AIKEN          FAIR      70  68  94 CALM      29.99R
MANNING        FAIR      70  70 100 CALM      29.93R
COLUMBIA       CLEAR     73  70  90 CALM      29.93S
SUMTER         CLEAR     74  71  90 SW3       29.91S
FLORENCE       CLEAR     73  70  90 CALM      29.92S
MYRTLE BEACH   NOT AVBL
N MYRTLE BEACH CLEAR     74  72  93 NW5       29.91F

$$

GAZ063-065-086>088-099>101-113>116-118-119-134>141-150-041100-
...SOUTHEAST GEORGIA...

CITY           SKY/WX    TMP DP  RH WIND       PRES   REMARKS
SAVANNAH ARPT  CLEAR     77  75  93 W3        29.93R
HUNTER AAF     CLEAR     77  77 100 W2        29.91R
FORT STEWART   CLEAR     76  74  95 CALM      29.91R
STATESBORO     PTCLDY    74  32  21 CALM      29.95R
SYLVANIA       NOT AVBL
CLAXTON        NOT AVBL

...CSRA...CENTRAL AND FAR SOUTHEAST GEORGIA...

CITY           SKY/WX    TMP DP  RH WIND       PRES   REMARKS
THOMSON        CLOUDY    74  74 100 CALM      30.00R
AUGUSTA-BUSH   FOG       70  70 100 CALM      29.93S VSB 1/2
AUGUSTA-DANIEL PTCLDY    77  74  90 CALM      29.95S
SWAINSBORO     FAIR      73  73 100 CALM      29.96R
VIDALIA        CLEAR     75  73  94 CALM      29.96R
EASTMAN        FOG       72  72 100 CALM      29.98S VSB 1/4
HAZLEHURST     FAIR      76  76 100 CALM      29.94S
ALMA           CLEAR     76  74  93 NW5       29.94R
WAYCROSS       CLEAR     77  77 100 CALM      29.94R FOG
JESUP          FAIR      75  73  94 CALM      29.94R FOG
BAXLEY         FAIR      77  75  94 CALM      29.94R
BRUNSWICK      CLEAR     72  72 100 CALM      29.94R
SAINT SIMONS   CLEAR     76  76 100 CALM      29.92S

$$

SCZ027-028-034-036>038-045-046-048>050-GAZ119-141-041100-
...LAKE AND SUPPLEMENTAL COASTAL OBSERVATIONS...

STATION/POSITION TIME  TEMP    WIND        PRES    WAVE   SWELL
                       AIR SEA DIR/SP/G            HT/PER HT/PER/DIR
                 (UTC) (F)     (DEG/KT/KT) (MB)    (FT/S) (FT/S/D)
UPR LAKE MARION  NOT AVBL
WINYAH BAY       0900   76     290/  3     1012.0S
LAKE MURRAY      1000   76     310/  3/  5 1013.2S
ACE BASIN NERRS  NOT AVBL
FORT PULASKI     1000   79 83  240/  2/  3 1013.8R
SAPELO ISLAND    1000   78     290/  4     1013.0S

$$

ANZ835-935-AMZ111-154-330-350-352-354-370-450-454-472-041100-
...C-MAN AND BUOY OBSERVATIONS...

STATION/POSITION TIME  TEMP    WIND        PRES    WAVE   SWELL
                       AIR SEA DIR/SP/G            HT/PER HT/PER/DIR
                 (UTC) (F)     (DEG/KT/KT) (MB)    (FT/S) (FT/S/D)
BUOY 41004       0950   82 83  300/  8/  8 1012.4R   1/ 4   2/ 4
BUOY 41008       0950   82 84  300/  8/ 10 1013.2R   1/ 8   2/100/ 8
FOLLY BEACH CMAN 1000   78     270/  2/  3 1013.2R
CAPERS NEARSHORE 0908   82     270/  8/ 10 1013.0S
FRIPP NEARSHORE  0900   82     270/  6/  8 1012.6F


STATION/POSITION TIME  TEMP    WIND        PRES    WAVE   SWELL
                       AIR SEA DIR/SP/G            HT/PER HT/PER/DIR
                 (UTC) (F)     (DEG/KT/KT) (MB)    (FT/S) (FT/S/D)
5E ST. MARYS GA  0921      85                N/A     1/14
FRYING PAN BUOY  0950   81 81  340/  6/  8 1013.3R   1/ 7   2/130/ 7
BUOY 41025       0950   81 85  340/  8/ 10 1012.6S   1/12   2/100/12
CAPE LOOKOUT NC  1000   79     330/  7/  7 1012.6R
BUOY 41002       0950   82 84   CALM  /  2 1012.2S   2/13   2/ 70/13
BUOY 41010       0920   81 85  230/ 16/ 19 1012.1R
ST AUGUSTINE FL  1000   78 83  290/  5/  6 1014.0R


$$


USA.gov is the U.S. government's official web portal to all federal, state and local government web resources and services.